sat.trackr.live / text

‹ back to catalog

STARLINK-32458

NORAD 61962 · 2024-210D

PAYLOAD ACTIVE UNKNOWN

§ Identity

Operator
Country
US
Launch date
2024-11-14
Launch site
AFETR
Launch vehicle
Mass (kg)
RCS (m²)

Purposes: comms

External: N2YO · Heavens-Above · Gunter

§ Orbital elements

Epoch: 2026-09-21T01:13:18.423552Z

Period
94.27 min
Inclination
43.0032°
Eccentricity
0.0000633
Mean motion
15.27595649 rev/d
Perigee alt
482.6 km
Apogee alt
483.4 km
Semi-major
6,861.1 km
B*
4.2218e-4
RAAN
142.1890°
Arg perigee
350.7330°
Mean anomaly
9.3510°
Rev number
10,495

§ Raw data

STARLINK-324581 61962U 24210D   26264.05090768  .00011379  00000+0  42218-3 0  99982 61962  43.0032 142.1890 0000633 350.7330   9.3510 15.27595649104956

JSON: /api/v1/satellites/61962 · /tle

For live sub-satellite position, see the globe view (requires WebGL).

§ Visibility from observer

Set your observer location to see the next 7 days of passes ≥ 10°. The values pass through the URL so the page stays shareable.

No JS? Fill the form by hand. The geolocation button needs JavaScript.